Location: Unspecified
(49.9820°N, 20.4363°E)
Time: 22:04:30
(UTC+02:00)

S-56A Canister/Altair - All Passes

Search period start: 15 May 2026 00:00
Search period end: 25 May 2026 00:00
Orbit: 633 x 2484 km, 38.9° (Epoch: 15 May)

Date Brightness Start Highest point End Pass type
(mag) Time Alt. Az. Time Alt. Az. Time Alt. Az.
15 May - 00:39:15 10° WSW 00:43:02 22° S 00:47:40 10° SE night (unlit)
15 May - 02:43:34 10° SW 02:45:55 12° SSW 02:48:33 10° S visible
15 May - 22:02:32 10° SW 22:05:44 19° SSE 22:09:09 10° ESE visible
16 May - 00:04:41 10° WSW 00:08:17 22° S 00:12:34 10° SE visible
16 May - 02:08:40 10° SW 02:11:05 13° SSW 02:13:48 10° S night (unlit)
16 May - 21:28:01 10° SSW 21:31:03 18° SSE 21:34:10 10° ESE visible
16 May - 23:30:06 10° SW 23:33:34 21° S 23:37:33 10° SE visible
17 May - 01:33:50 10° SW 01:36:17 13° SSW 01:39:02 10° S night (unlit)
17 May - 20:53:29 10° SSW 20:56:23 17° SSE 20:59:14 10° SE visible
17 May - 22:55:29 10° SW 22:58:53 21° S 23:02:36 10° SE visible
18 May - 00:59:03 10° SW 01:01:30 14° SSW 01:04:16 10° S night (unlit)
18 May - 20:18:54 10° SSW 20:21:42 15° SSE 20:24:21 10° SE daylight
18 May - 22:20:49 10° SW 22:24:11 21° S 22:27:43 10° SE visible
19 May - 00:24:15 10° SW 00:26:45 14° SSW 00:29:31 10° SSE visible
19 May - 19:44:17 10° SSW 19:46:59 15° SSE 19:49:30 10° SE daylight
19 May - 21:46:07 10° SW 21:49:30 21° S 21:52:55 10° SE visible
19 May - 23:49:28 10° SW 23:52:02 15° SSW 23:54:49 10° SSE visible
20 May - 19:09:38 10° SSW 19:12:16 14° SSE 19:14:40 10° SE daylight
20 May - 21:11:21 10° SW 21:14:49 21° S 21:18:11 10° SE visible
20 May - 23:14:39 10° SW 23:17:19 16° SSW 23:20:10 10° SSE visible
21 May - 18:34:57 10° S 18:37:31 13° SSE 18:39:51 10° SE daylight
21 May - 20:36:30 10° SW 20:40:08 21° S 20:43:29 10° SE daylight
21 May - 22:39:48 10° SW 22:42:38 17° SSW 22:45:33 10° SSE visible
22 May - 18:00:14 10° S 18:02:46 13° SSE 18:05:02 10° SE daylight
22 May - 20:01:35 10° SW 20:05:26 21° S 20:08:51 10° SE daylight
22 May - 22:04:54 10° SW 22:07:56 18° SSW 22:10:59 10° SSE visible
23 May - 17:25:30 10° S 17:27:58 12° SSE 17:30:11 10° SE daylight
23 May - 19:26:36 10° SW 19:30:43 21° S 19:34:15 10° SE daylight
23 May - 21:29:56 10° WSW 21:33:16 19° SSW 21:36:26 10° SE visible
24 May - 16:50:48 10° S 16:53:08 12° SSE 16:55:15 10° SE daylight
24 May - 18:51:31 10° SW 18:55:59 22° S 18:59:40 10° ESE daylight
24 May - 20:54:55 10° WSW 20:58:35 21° S 21:01:56 10° SE daylight
